Time,TemperatureF,DewpointF,PressureIn,WindDirection,WindDirectionDegrees,WindSpeedMPH,WindSpeedGustMPH,Humidity,HourlyPrecipIn,Conditions,Clouds,dailyrainin,SoftwareType,DateUTC
2013-08-16 00:01:00,54.0,44.4,30.29,SSE,158,6.0,6.0,70,0.00,,,0.00,meteohub,2013-08-16 04:01:00,
2013-08-16 00:06:00,54.0,44.4,30.29,SSE,158,4.0,6.0,70,0.00,,,0.00,meteohub,2013-08-16 04:06:00,
2013-08-16 00:11:00,54.0,44.4,30.29,SSE,158,4.0,7.0,70,0.00,,,0.00,meteohub,2013-08-16 04:11:00,
2013-08-16 00:16:00,54.0,44.4,30.29,SSE,158,4.0,7.0,70,0.00,,,0.00,meteohub,2013-08-16 04:16:00,
2013-08-16 00:21:00,54.0,44.4,30.29,SSE,158,4.0,6.0,70,0.00,,,0.00,meteohub,2013-08-16 04:21:00,
2013-08-16 00:26:00,54.0,44.4,30.29,SSE,158,5.0,6.0,70,0.00,,,0.00,meteohub,2013-08-16 04:26:00,
2013-08-16 00:31:00,54.0,44.8,30.29,SSE,158,6.0,6.0,71,0.00,,,0.00,meteohub,2013-08-16 04:31:00,
2013-08-16 00:36:00,54.0,44.8,30.29,SSE,158,5.0,6.0,71,0.00,,,0.00,meteohub,2013-08-16 04:36:00,
2013-08-16 00:41:00,53.8,44.6,30.29,SSE,158,7.0,7.0,71,0.00,,,0.00,meteohub,2013-08-16 04:41:00,
2013-08-16 00:46:00,53.8,45.0,30.29,SE,135,4.0,7.0,72,0.00,,,0.00,meteohub,2013-08-16 04:46:00,
2013-08-16 00:51:00,53.8,45.0,30.29,SSE,158,5.0,7.0,72,0.00,,,0.00,meteohub,2013-08-16 04:51:00,
2013-08-16 00:56:00,53.8,45.0,30.29,ESE,112,4.0,7.0,72,0.00,,,0.00,meteohub,2013-08-16 04:56:00,
2013-08-16 01:01:00,53.6,44.8,30.30,SSE,158,3.0,6.0,72,0.00,,,0.00,meteohub,2013-08-16 05:01:00,
2013-08-16 01:06:00,53.6,44.8,30.30,SSE,158,4.0,5.0,72,0.00,,,0.00,meteohub,2013-08-16 05:06:00,
2013-08-16 01:11:00,53.4,44.6,30.30,SSE,158,4.0,5.0,72,0.00,,,0.00,meteohub,2013-08-16 05:11:00,
2013-08-16 01:19:00,53.4,44.6,30.30,SSE,158,4.0,5.0,72,0.00,,,0.00,meteohub,2013-08-16 05:19:00,
2013-08-16 01:25:00,53.4,44.6,30.30,SSE,158,4.0,5.0,72,0.00,,,0.00,meteohub,2013-08-16 05:25:00,
2013-08-16 01:30:00,53.4,44.6,30.26,ESE,112,4.0,5.0,72,0.00,,,0.00,meteohub,2013-08-16 05:30:00,
2013-08-16 01:35:00,53.4,44.6,30.26,SSE,158,4.0,5.0,72,0.00,,,0.00,meteohub,2013-08-16 05:35:00,
2013-08-16 01:40:00,53.2,44.8,30.26,ESE,112,3.0,5.0,73,0.00,,,0.00,meteohub,2013-08-16 05:40:00,
2013-08-16 01:45:00,53.2,44.8,30.30,SSE,158,4.0,5.0,73,0.00,,,0.00,meteohub,2013-08-16 05:45:00,
2013-08-16 01:50:00,53.4,45.0,30.30,SSE,158,3.0,6.0,73,0.00,,,0.00,meteohub,2013-08-16 05:50:00,
2013-08-16 01:55:00,53.2,44.8,30.30,SSE,158,3.0,6.0,73,0.00,,,0.00,meteohub,2013-08-16 05:55:00,
2013-08-16 02:00:00,53.2,44.8,30.26,ESE,112,4.0,6.0,73,0.00,,,0.00,meteohub,2013-08-16 06:00:00,
2013-08-16 02:05:00,53.2,44.8,30.26,SSE,158,3.0,4.0,73,0.00,,,0.00,meteohub,2013-08-16 06:05:00,
2013-08-16 02:10:00,53.2,44.8,30.26,SSE,158,4.0,5.0,73,0.00,,,0.00,meteohub,2013-08-16 06:10:00,
2013-08-16 02:15:00,53.2,44.8,30.26,SSE,158,3.0,5.0,73,0.00,,,0.00,meteohub,2013-08-16 06:15:00,
2013-08-16 02:20:00,53.2,44.8,30.26,SSE,158,4.0,5.0,73,0.00,,,0.00,meteohub,2013-08-16 06:20:00,
2013-08-16 02:25:00,53.2,45.1,30.26,SSE,158,2.0,4.0,74,0.00,,,0.00,meteohub,2013-08-16 06:25:00,
2013-08-16 02:30:00,53.2,45.1,30.26,SSE,158,2.0,4.0,74,0.00,,,0.00,meteohub,2013-08-16 06:30:00,
2013-08-16 02:35:00,53.2,45.1,30.26,SSE,158,2.0,4.0,74,0.00,,,0.00,meteohub,2013-08-16 06:35:00,
2013-08-16 02:40:00,53.1,45.0,30.27,SSE,158,3.0,4.0,74,0.00,,,0.00,meteohub,2013-08-16 06:40:00,
2013-08-16 02:45:00,53.1,45.0,30.27,SSE,158,4.0,4.0,74,0.00,,,0.00,meteohub,2013-08-16 06:45:00,
2013-08-16 02:50:00,53.1,45.0,30.27,South,180,4.0,4.0,74,0.00,,,0.00,meteohub,2013-08-16 06:50:00,
2013-08-16 02:55:00,53.1,45.0,30.27,SE,135,3.0,4.0,74,0.00,,,0.00,meteohub,2013-08-16 06:55:00,
2013-08-16 03:00:00,53.1,45.0,30.27,SE,135,4.0,4.0,74,0.00,,,0.00,meteohub,2013-08-16 07:00:00,
2013-08-16 03:05:00,53.2,45.5,30.26,SSE,158,4.0,4.0,75,0.00,,,0.00,meteohub,2013-08-16 07:05:00,
2013-08-16 03:10:00,53.2,45.5,30.26,SSE,158,3.0,4.0,75,0.00,,,0.00,meteohub,2013-08-16 07:10:00,
2013-08-16 03:15:00,53.4,45.7,30.26,SSE,158,4.0,5.0,75,0.00,,,0.00,meteohub,2013-08-16 07:15:00,
2013-08-16 03:20:00,53.6,45.9,30.26,SSE,158,4.0,5.0,75,0.00,,,0.00,meteohub,2013-08-16 07:20:00,
2013-08-16 03:25:00,53.6,45.9,30.26,SE,135,4.0,6.0,75,0.00,,,0.00,meteohub,2013-08-16 07:25:00,
2013-08-16 03:30:00,53.6,45.9,30.26,SSE,158,4.0,6.0,75,0.00,,,0.00,meteohub,2013-08-16 07:30:00,
2013-08-16 03:35:00,53.6,45.9,30.26,SSE,158,3.0,6.0,75,0.00,,,0.00,meteohub,2013-08-16 07:35:00,
2013-08-16 03:40:00,53.6,45.9,30.26,SSE,158,4.0,5.0,75,0.00,,,0.00,meteohub,2013-08-16 07:40:00,
2013-08-16 03:45:00,53.6,45.9,30.23,SSE,158,4.0,4.0,75,0.00,,,0.00,meteohub,2013-08-16 07:45:00,
2013-08-16 03:51:00,53.4,45.7,30.23,South,180,1.0,4.0,75,0.00,,,0.00,meteohub,2013-08-16 07:51:00,
2013-08-16 03:56:00,53.2,45.5,30.23,SSE,158,2.0,4.0,75,0.00,,,0.00,meteohub,2013-08-16 07:56:00,
2013-08-16 04:01:00,53.2,45.5,30.26,SSE,158,0.0,4.0,75,0.00,,,0.00,meteohub,2013-08-16 08:01:00,
2013-08-16 04:06:00,53.1,45.3,30.27,South,180,1.0,3.0,75,0.00,,,0.00,meteohub,2013-08-16 08:06:00,
2013-08-16 04:11:00,52.7,44.6,30.27,South,180,0.0,3.0,74,0.00,,,0.00,meteohub,2013-08-16 08:11:00,
2013-08-16 04:16:00,52.5,44.4,30.24,South,180,2.0,2.0,74,0.00,,,0.00,meteohub,2013-08-16 08:16:00,
2013-08-16 04:21:00,52.3,44.2,30.24,SSE,158,2.0,3.0,74,0.00,,,0.00,meteohub,2013-08-16 08:21:00,
2013-08-16 04:26:00,52.3,44.6,30.24,South,180,0.0,3.0,75,0.00,,,0.00,meteohub,2013-08-16 08:26:00,
2013-08-16 04:31:00,52.3,44.6,30.27,South,180,0.0,3.0,75,0.00,,,0.00,meteohub,2013-08-16 08:31:00,
2013-08-16 04:36:00,52.2,44.4,30.27,SSE,158,0.0,0.0,75,0.00,,,0.00,meteohub,2013-08-16 08:36:00,
2013-08-16 04:41:00,52.2,44.4,30.24,South,180,2.0,3.0,75,0.00,,,0.00,meteohub,2013-08-16 08:41:00,
2013-08-16 04:46:00,52.2,44.4,30.24,SSE,158,1.0,3.0,75,0.00,,,0.00,meteohub,2013-08-16 08:46:00,
2013-08-16 04:51:00,52.0,44.2,30.24,North,-999,-999.0,3.0,75,0.00,,,0.00,meteohub,2013-08-16 08:51:00,
2013-08-16 04:56:00,51.6,43.9,30.24,SSE,158,0.0,2.0,75,0.00,,,0.00,meteohub,2013-08-16 08:56:00,
2013-08-16 05:01:00,51.6,43.9,30.24,SW,225,0.0,1.0,75,0.00,,,0.00,meteohub,2013-08-16 09:01:00,
2013-08-16 05:06:00,51.6,44.2,30.24,SSW,202,1.0,0.0,76,0.00,,,0.00,meteohub,2013-08-16 09:06:00,
2013-08-16 05:11:00,51.6,44.2,30.24,SSE,158,0.0,3.0,76,0.00,,,0.00,meteohub,2013-08-16 09:11:00,
2013-08-16 05:16:00,51.6,44.2,30.24,SSE,158,0.0,3.0,76,0.00,,,0.00,meteohub,2013-08-16 09:16:00,
2013-08-16 05:21:00,51.6,44.2,30.24,North,-999,-999.0,3.0,76,0.00,,,0.00,meteohub,2013-08-16 09:21:00,
2013-08-16 05:26:00,51.6,44.2,30.24,North,-999,-999.0,0.0,76,0.00,,,0.00,meteohub,2013-08-16 09:26:00,
2013-08-16 05:31:00,51.4,44.4,30.25,SSE,158,0.0,-999.0,77,0.00,,,0.00,meteohub,2013-08-16 09:31:00,
2013-08-16 05:36:00,51.4,44.4,30.25,SSE,158,0.0,0.0,77,0.00,,,0.00,meteohub,2013-08-16 09:36:00,
2013-08-16 05:41:00,51.4,44.4,30.28,North,-999,-999.0,0.0,77,0.00,,,0.00,meteohub,2013-08-16 09:41:00,
2013-08-16 05:46:00,51.4,44.4,30.28,North,-999,-999.0,0.0,77,0.00,,,0.00,meteohub,2013-08-16 09:46:00,
2013-08-16 05:51:00,51.4,44.4,30.28,WNW,292,1.0,-999.0,77,0.00,,,0.00,meteohub,2013-08-16 09:51:00,
2013-08-16 05:56:00,51.4,44.4,30.28,North,-999,-999.0,1.0,77,0.00,,,0.00,meteohub,2013-08-16 09:56:00,
2013-08-16 06:02:00,51.4,44.4,30.28,North,-999,-999.0,1.0,77,0.00,,,0.00,meteohub,2013-08-16 10:02:00,
2013-08-16 06:07:00,51.6,44.6,30.28,North,-999,-999.0,1.0,77,0.00,,,0.00,meteohub,2013-08-16 10:07:00,
2013-08-16 06:12:00,51.6,44.6,30.28,North,-999,-999.0,-999.0,77,0.00,,,0.00,meteohub,2013-08-16 10:12:00,
2013-08-16 06:17:00,51.6,44.6,30.28,South,180,2.0,-999.0,77,0.00,,,0.00,meteohub,2013-08-16 10:17:00,
2013-08-16 06:22:00,51.6,44.2,30.28,North,-999,-999.0,2.0,76,0.00,,,0.00,meteohub,2013-08-16 10:22:00,
2013-08-16 06:27:00,51.8,44.1,30.27,North,-999,-999.0,2.0,75,0.00,,,0.00,meteohub,2013-08-16 10:27:00,
2013-08-16 06:32:00,51.8,44.1,30.27,North,-999,-999.0,2.0,75,0.00,,,0.00,meteohub,2013-08-16 10:32:00,
2013-08-16 06:37:00,51.8,43.9,30.27,North,-999,-999.0,-999.0,74,0.00,,,0.00,meteohub,2013-08-16 10:37:00,
2013-08-16 06:42:00,51.8,43.9,30.27,North,-999,-999.0,-999.0,74,0.00,,,0.00,meteohub,2013-08-16 10:42:00,
2013-08-16 06:47:00,52.0,43.9,30.27,North,-999,-999.0,-999.0,74,0.00,,,0.00,meteohub,2013-08-16 10:47:00,
2013-08-16 06:52:00,52.2,44.1,30.27,North,-999,-999.0,-999.0,74,0.00,,,0.00,meteohub,2013-08-16 10:52:00,
2013-08-16 06:57:00,52.3,44.2,30.27,North,-999,-999.0,-999.0,74,0.00,,,0.00,meteohub,2013-08-16 10:57:00,
2013-08-16 07:02:00,52.5,44.4,30.27,North,-999,-999.0,-999.0,74,0.00,,,0.00,meteohub,2013-08-16 11:02:00,
2013-08-16 07:07:00,52.7,44.6,30.27,North,-999,-999.0,-999.0,74,0.00,,,0.00,meteohub,2013-08-16 11:07:00,
2013-08-16 07:12:00,52.7,44.2,30.27,North,-999,-999.0,-999.0,73,0.00,,,0.00,meteohub,2013-08-16 11:12:00,
2013-08-16 07:17:00,52.7,43.9,30.27,North,-999,-999.0,-999.0,72,0.00,,,0.00,meteohub,2013-08-16 11:17:00,
2013-08-16 07:22:00,52.9,44.1,30.27,North,-999,-999.0,-999.0,72,0.00,,,0.00,meteohub,2013-08-16 11:22:00,
2013-08-16 07:27:00,52.9,43.7,30.27,North,-999,-999.0,-999.0,71,0.00,,,0.00,meteohub,2013-08-16 11:27:00,
2013-08-16 07:32:00,53.1,43.9,30.27,North,-999,-999.0,-999.0,71,0.00,,,0.00,meteohub,2013-08-16 11:32:00,
2013-08-16 07:37:00,53.1,43.9,30.27,North,-999,-999.0,-999.0,71,0.00,,,0.00,meteohub,2013-08-16 11:37:00,
2013-08-16 07:42:00,53.2,43.7,30.30,North,-999,-999.0,-999.0,70,0.00,,,0.00,meteohub,2013-08-16 11:42:00,
2013-08-16 07:47:00,53.4,43.9,30.30,North,-999,-999.0,-999.0,70,0.00,,,0.00,meteohub,2013-08-16 11:47:00,
2013-08-16 07:52:00,53.6,43.7,30.30,North,-999,-999.0,-999.0,69,0.00,,,0.00,meteohub,2013-08-16 11:52:00,
2013-08-16 07:57:00,53.8,43.9,30.29,North,-999,-999.0,-999.0,69,0.00,,,0.00,meteohub,2013-08-16 11:57:00,
2013-08-16 08:02:00,53.8,43.9,30.29,North,-999,-999.0,-999.0,69,0.00,,,0.00,meteohub,2013-08-16 12:02:00,
2013-08-16 08:07:00,53.8,43.5,30.29,North,-999,-999.0,-999.0,68,0.00,,,0.00,meteohub,2013-08-16 12:07:00,
2013-08-16 08:12:00,54.0,43.7,30.26,North,-999,-999.0,-999.0,68,0.00,,,0.00,meteohub,2013-08-16 12:12:00,
2013-08-16 08:17:00,54.0,43.3,30.26,SSE,158,2.0,-999.0,67,0.00,,,0.00,meteohub,2013-08-16 12:17:00,
2013-08-16 08:22:00,54.1,43.5,30.26,North,-999,-999.0,2.0,67,0.00,,,0.00,meteohub,2013-08-16 12:22:00,
2013-08-16 08:27:00,54.3,44.1,30.29,North,-999,-999.0,2.0,68,0.00,,,0.00,meteohub,2013-08-16 12:27:00,
2013-08-16 08:32:00,54.7,45.1,30.29,North,-999,-999.0,2.0,70,0.00,,,0.00,meteohub,2013-08-16 12:32:00,
2013-08-16 08:37:00,55.0,45.5,30.28,North,-999,-999.0,-999.0,70,0.00,,,0.00,meteohub,2013-08-16 12:37:00,
2013-08-16 08:42:00,55.4,45.5,30.28,North,-999,-999.0,-999.0,69,0.00,,,0.00,meteohub,2013-08-16 12:42:00,
2013-08-16 08:47:00,55.9,45.9,30.28,SSE,158,3.0,-999.0,69,0.00,,,0.00,meteohub,2013-08-16 12:47:00,
2013-08-16 08:52:00,56.5,46.0,30.27,SE,135,3.0,4.0,68,0.00,,,0.00,meteohub,2013-08-16 12:52:00,
2013-08-16 08:57:00,56.7,45.5,30.27,North,-999,-999.0,4.0,66,0.00,,,0.00,meteohub,2013-08-16 12:57:00,
2013-08-16 09:02:00,56.7,44.6,30.27,SSE,158,3.0,4.0,64,0.00,,,0.00,meteohub,2013-08-16 13:02:00,
2013-08-16 09:07:00,57.0,44.6,30.27,SSE,158,3.0,4.0,63,0.00,,,0.00,meteohub,2013-08-16 13:07:00,
2013-08-16 09:12:00,57.6,44.6,30.26,SSE,158,4.0,4.0,62,0.00,,,0.00,meteohub,2013-08-16 13:12:00,
2013-08-16 09:17:00,57.6,43.3,30.26,ESE,112,4.0,4.0,59,0.00,,,0.00,meteohub,2013-08-16 13:17:00,
2013-08-16 09:22:00,57.7,42.3,30.26,SSE,158,5.0,6.0,56,0.00,,,0.00,meteohub,2013-08-16 13:22:00,
2013-08-16 09:27:00,57.9,42.3,30.26,SSE,158,4.0,6.0,56,0.00,,,0.00,meteohub,2013-08-16 13:27:00,
2013-08-16 09:32:00,57.9,41.9,30.26,SSE,158,4.0,5.0,55,0.00,,,0.00,meteohub,2013-08-16 13:32:00,
2013-08-16 09:37:00,58.1,40.6,30.26,SSE,158,5.0,5.0,52,0.00,,,0.00,meteohub,2013-08-16 13:37:00,
2013-08-16 09:42:00,58.5,41.0,30.26,SSE,158,6.0,6.0,52,0.00,,,0.00,meteohub,2013-08-16 13:42:00,
2013-08-16 09:47:00,58.5,40.5,30.26,ESE,112,6.0,8.0,51,0.00,,,0.00,meteohub,2013-08-16 13:47:00,
2013-08-16 09:52:00,58.8,40.3,30.25,North,-999,-999.0,9.0,50,0.00,,,0.00,meteohub,2013-08-16 13:52:00,
2013-08-16 09:57:00,58.5,39.9,30.26,SSE,158,6.0,9.0,50,0.00,,,0.00,meteohub,2013-08-16 13:57:00,
2013-08-16 10:02:00,58.5,40.5,30.26,SSE,158,6.0,9.0,51,0.00,,,0.00,meteohub,2013-08-16 14:02:00,
2013-08-16 10:07:00,58.6,40.6,30.25,SSE,158,6.0,9.0,51,0.00,,,0.00,meteohub,2013-08-16 14:07:00,
2013-08-16 10:12:00,58.8,40.8,30.25,SE,135,6.0,10.0,51,0.00,,,0.00,meteohub,2013-08-16 14:12:00,
2013-08-16 10:17:00,59.0,41.0,30.25,SSE,158,6.0,10.0,51,0.00,,,0.00,meteohub,2013-08-16 14:17:00,
2013-08-16 10:22:00,59.2,41.0,30.25,SE,135,6.0,10.0,51,0.00,,,0.00,meteohub,2013-08-16 14:22:00,
2013-08-16 10:27:00,59.5,40.8,30.25,ESE,112,6.0,8.0,50,0.00,,,0.00,meteohub,2013-08-16 14:27:00,
2013-08-16 10:32:00,59.5,40.5,30.25,SE,135,6.0,8.0,49,0.00,,,0.00,meteohub,2013-08-16 14:32:00,
2013-08-16 10:36:00,59.7,40.6,30.25,SSE,158,6.0,8.0,49,0.00,,,0.00,meteohub,2013-08-16 14:36:00,
2013-08-16 10:42:00,59.7,40.1,30.25,SE,135,6.0,8.0,48,0.00,,,0.00,meteohub,2013-08-16 14:42:00,
2013-08-16 10:47:00,59.5,39.4,30.25,SSE,158,6.0,9.0,47,0.00,,,0.00,meteohub,2013-08-16 14:47:00,
2013-08-16 10:52:00,59.7,40.1,30.25,SSE,158,6.0,9.0,48,0.00,,,0.00,meteohub,2013-08-16 14:52:00,
2013-08-16 10:57:00,59.9,39.6,30.28,SSE,158,9.0,10.0,47,0.00,,,0.00,meteohub,2013-08-16 14:57:00,
2013-08-16 11:02:00,60.1,39.7,30.28,SSE,158,8.0,10.0,47,0.00,,,0.00,meteohub,2013-08-16 15:02:00,
2013-08-16 11:07:00,60.3,39.9,30.28,SE,135,6.0,10.0,47,0.00,,,0.00,meteohub,2013-08-16 15:07:00,
2013-08-16 11:12:00,60.3,40.5,30.28,SSE,158,6.0,10.0,48,0.00,,,0.00,meteohub,2013-08-16 15:12:00,
2013-08-16 11:17:00,60.1,39.7,30.28,SSE,158,6.0,9.0,47,0.00,,,0.00,meteohub,2013-08-16 15:17:00,
2013-08-16 11:22:00,59.9,39.6,30.28,SSE,158,6.0,9.0,47,0.00,,,0.00,meteohub,2013-08-16 15:22:00,
2013-08-16 11:27:00,60.1,39.7,30.25,SSE,158,5.0,8.0,47,0.00,,,0.00,meteohub,2013-08-16 15:27:00,
2013-08-16 11:32:00,59.9,39.6,30.25,SSE,158,9.0,9.0,47,0.00,,,0.00,meteohub,2013-08-16 15:32:00,
2013-08-16 11:37:00,59.7,40.1,30.25,SE,135,4.0,10.0,48,0.00,,,0.00,meteohub,2013-08-16 15:37:00,
2013-08-16 11:42:00,60.1,40.3,30.25,SSE,158,8.0,10.0,48,0.00,,,0.00,meteohub,2013-08-16 15:42:00,
2013-08-16 11:47:00,59.9,40.1,30.25,SSE,158,3.0,10.0,48,0.00,,,0.00,meteohub,2013-08-16 15:47:00,
2013-08-16 11:52:00,59.9,39.6,30.25,SE,135,6.0,8.0,47,0.00,,,0.00,meteohub,2013-08-16 15:52:00,
2013-08-16 11:57:00,59.7,40.1,30.25,SSE,158,4.0,8.0,48,0.00,,,0.00,meteohub,2013-08-16 15:57:00,
2013-08-16 12:02:00,59.9,40.1,30.25,SSE,158,6.0,8.0,48,0.00,,,0.00,meteohub,2013-08-16 16:02:00,
2013-08-16 12:07:00,60.3,40.5,30.24,ESE,112,5.0,8.0,48,0.00,,,0.00,meteohub,2013-08-16 16:07:00,
2013-08-16 12:12:00,61.5,41.7,30.23,SE,135,9.0,9.0,48,0.00,,,0.00,meteohub,2013-08-16 16:12:00,
2013-08-16 12:17:00,62.8,42.3,30.22,SE,135,5.0,9.0,47,0.00,,,0.00,meteohub,2013-08-16 16:17:00,
2013-08-16 12:22:00,63.3,42.3,30.22,SSE,158,6.0,10.0,46,0.00,,,0.00,meteohub,2013-08-16 16:22:00,
2013-08-16 12:27:00,64.4,42.1,30.21,SSE,158,9.0,10.0,44,0.00,,,0.00,meteohub,2013-08-16 16:27:00,
2013-08-16 12:32:00,64.2,40.6,30.21,SSE,158,9.0,10.0,42,0.00,,,0.00,meteohub,2013-08-16 16:32:00,
2013-08-16 12:37:00,64.4,40.3,30.21,SSE,158,7.0,11.0,41,0.00,,,0.00,meteohub,2013-08-16 16:37:00,
2013-08-16 12:42:00,64.4,39.6,30.21,SE,135,9.0,11.0,40,0.00,,,0.00,meteohub,2013-08-16 16:42:00,
2013-08-16 12:47:00,64.6,41.0,30.21,SSE,158,8.0,14.0,42,0.00,,,0.00,meteohub,2013-08-16 16:47:00,
2013-08-16 12:52:00,64.4,39.6,30.21,SSE,158,9.0,14.0,40,0.00,,,0.00,meteohub,2013-08-16 16:52:00,
2013-08-16 12:57:00,64.0,39.9,30.21,SE,135,8.0,14.0,41,0.00,,,0.00,meteohub,2013-08-16 16:57:00,
2013-08-16 13:02:00,63.7,39.6,30.22,ESE,112,5.0,13.0,41,0.00,,,0.00,meteohub,2013-08-16 17:02:00,
2013-08-16 13:07:00,64.0,39.9,30.21,SSE,158,7.0,11.0,41,0.00,,,0.00,meteohub,2013-08-16 17:07:00,
2013-08-16 13:12:00,65.1,41.5,30.20,SSE,158,9.0,11.0,42,0.00,,,0.00,meteohub,2013-08-16 17:12:00,
2013-08-16 13:17:00,66.0,41.0,30.20,ESE,112,8.0,13.0,40,0.00,,,0.00,meteohub,2013-08-16 17:17:00,
2013-08-16 13:22:00,66.6,41.5,30.19,SSW,202,6.0,13.0,40,0.00,,,0.00,meteohub,2013-08-16 17:22:00,
2013-08-16 13:27:00,67.8,41.4,30.19,South,180,6.0,13.0,38,0.00,,,0.00,meteohub,2013-08-16 17:27:00,
2013-08-16 13:32:00,68.4,40.5,30.18,ESE,112,6.0,11.0,36,0.00,,,0.00,meteohub,2013-08-16 17:32:00,
2013-08-16 13:37:00,68.9,40.8,30.18,SE,135,5.0,11.0,36,0.00,,,0.00,meteohub,2013-08-16 17:37:00,
2013-08-16 13:42:00,69.1,39.6,30.17,SSE,158,9.0,11.0,34,0.00,,,0.00,meteohub,2013-08-16 17:42:00,
2013-08-16 13:47:00,69.6,40.1,30.17,SSE,158,8.0,11.0,34,0.00,,,0.00,meteohub,2013-08-16 17:47:00,
2013-08-16 13:52:00,69.8,39.4,30.17,SE,135,8.0,13.0,33,0.00,,,0.00,meteohub,2013-08-16 17:52:00,
2013-08-16 13:57:00,70.0,39.6,30.17,ESE,112,4.0,13.0,33,0.00,,,0.00,meteohub,2013-08-16 17:57:00,
2013-08-16 14:02:00,70.7,40.3,30.16,South,180,7.0,13.0,33,0.00,,,0.00,meteohub,2013-08-16 18:02:00,
2013-08-16 14:07:00,71.6,41.0,30.16,SE,135,6.0,11.0,33,0.00,,,0.00,meteohub,2013-08-16 18:07:00,
2013-08-16 14:12:00,72.1,41.5,30.15,SSE,158,5.0,10.0,33,0.00,,,0.00,meteohub,2013-08-16 18:12:00,
2013-08-16 14:17:00,72.5,41.7,30.15,ESE,112,6.0,10.0,33,-99.99,,,0.00,meteohub,2013-08-16 18:17:00,
2013-08-16 14:22:00,72.9,41.4,30.15,SSE,158,6.0,9.0,32,-99.99,,,0.00,meteohub,2013-08-16 18:22:00,
2013-08-16 14:27:00,72.7,40.3,30.15,SW,225,2.0,9.0,31,-99.99,,,0.00,meteohub,2013-08-16 18:27:00,
2013-08-16 14:32:00,73.2,41.5,30.14,SE,135,5.0,9.0,32,-99.99,,,0.00,meteohub,2013-08-16 18:32:00,
2013-08-16 14:37:00,73.2,41.5,30.14,SSE,158,4.0,9.0,32,-99.99,,,0.00,meteohub,2013-08-16 18:37:00,
2013-08-16 14:42:00,73.4,41.0,30.14,SE,135,6.0,7.0,31,-99.99,,,0.00,meteohub,2013-08-16 18:42:00,
2013-08-16 14:47:00,73.4,41.0,30.14,ESE,112,6.0,10.0,31,-99.99,,,0.00,meteohub,2013-08-16 18:47:00,
2013-08-16 14:52:00,73.4,41.0,30.14,WSW,248,0.0,10.0,31,-99.99,,,0.00,meteohub,2013-08-16 18:52:00,
2013-08-16 14:57:00,73.8,41.2,30.14,SSE,158,6.0,10.0,31,-99.99,,,0.00,meteohub,2013-08-16 18:57:00,
2013-08-16 15:02:00,74.1,41.5,30.14,SSE,158,3.0,9.0,31,0.00,,,0.00,meteohub,2013-08-16 19:02:00,
2013-08-16 15:07:00,74.3,41.7,30.14,SSE,158,8.0,9.0,31,0.00,,,0.00,meteohub,2013-08-16 19:07:00,
2013-08-16 15:12:00,73.6,41.2,30.14,SE,135,6.0,10.0,31,0.00,,,0.00,meteohub,2013-08-16 19:12:00,
2013-08-16 15:17:00,74.1,41.5,30.14,SSE,158,4.0,10.0,31,0.00,,,0.00,meteohub,2013-08-16 19:17:00,
2013-08-16 15:22:00,74.5,41.9,30.14,SE,135,6.0,10.0,31,0.00,,,0.00,meteohub,2013-08-16 19:22:00,
2013-08-16 15:27:00,73.0,40.6,30.14,SE,135,6.0,10.0,31,0.00,,,0.00,meteohub,2013-08-16 19:27:00,
2013-08-16 15:32:00,73.2,40.8,30.14,SSE,158,6.0,10.0,31,0.00,,,0.00,meteohub,2013-08-16 19:32:00,
2013-08-16 15:37:00,73.4,41.0,30.14,SSE,158,6.0,9.0,31,0.00,,,0.00,meteohub,2013-08-16 19:37:00,
2013-08-16 15:42:00,73.6,41.2,30.14,ESE,112,5.0,9.0,31,0.00,,,0.00,meteohub,2013-08-16 19:42:00,
2013-08-16 15:47:00,73.6,41.2,30.14,ESE,112,1.0,9.0,31,0.00,,,0.00,meteohub,2013-08-16 19:47:00,
2013-08-16 15:52:00,73.4,41.0,30.14,SE,135,8.0,9.0,31,0.00,,,0.00,meteohub,2013-08-16 19:52:00,
2013-08-16 15:57:00,73.6,41.2,30.11,ENE,68,4.0,8.0,31,0.00,,,0.00,meteohub,2013-08-16 19:57:00,
2013-08-16 16:02:00,73.4,41.0,30.11,SE,135,6.0,8.0,31,0.00,,,0.00,meteohub,2013-08-16 20:02:00,
2013-08-16 16:07:00,72.7,41.2,30.12,South,180,3.0,8.0,32,0.00,,,0.00,meteohub,2013-08-16 20:07:00,
2013-08-16 16:12:00,72.1,40.6,30.12,SSE,158,6.0,7.0,32,0.00,,,0.00,meteohub,2013-08-16 20:12:00,
2013-08-16 16:17:00,71.2,39.9,30.12,SSE,158,4.0,9.0,32,0.00,,,0.00,meteohub,2013-08-16 20:17:00,
2013-08-16 16:22:00,70.2,39.0,30.13,SSE,158,6.0,9.0,32,0.00,,,0.00,meteohub,2013-08-16 20:22:00,
2013-08-16 16:27:00,69.3,39.0,30.17,SSE,158,4.0,9.0,33,0.00,,,0.00,meteohub,2013-08-16 20:27:00,
2013-08-16 16:32:00,68.7,39.2,30.18,SSE,158,4.0,8.0,34,0.00,,,0.00,meteohub,2013-08-16 20:32:00,
2013-08-16 16:37:00,68.0,39.4,30.18,SE,135,6.0,8.0,35,0.00,,,0.00,meteohub,2013-08-16 20:37:00,
2013-08-16 16:42:00,67.5,40.3,30.15,SE,135,6.0,8.0,37,0.00,,,0.00,meteohub,2013-08-16 20:42:00,
2013-08-16 16:47:00,67.1,39.9,30.16,SSE,158,6.0,8.0,37,0.00,,,0.00,meteohub,2013-08-16 20:47:00,
2013-08-16 16:52:00,66.6,40.3,30.16,ESE,112,4.0,8.0,38,0.00,,,0.00,meteohub,2013-08-16 20:52:00,
2013-08-16 16:57:00,66.2,40.5,30.20,SSE,158,6.0,9.0,39,0.00,,,0.00,meteohub,2013-08-16 20:57:00,
2013-08-16 17:02:00,65.8,40.8,30.20,SSE,158,8.0,9.0,40,0.00,,,0.00,meteohub,2013-08-16 21:02:00,
2013-08-16 17:07:00,65.7,41.9,30.20,SSE,158,6.0,9.0,42,0.00,,,0.00,meteohub,2013-08-16 21:07:00,
2013-08-16 17:12:00,65.3,41.7,30.17,ESE,112,6.0,8.0,42,0.00,,,0.00,meteohub,2013-08-16 21:12:00,
2013-08-16 17:17:00,65.1,41.5,30.17,SE,135,7.0,9.0,42,0.00,,,0.00,meteohub,2013-08-16 21:17:00,
2013-08-16 17:22:00,64.9,41.9,30.17,SSE,158,8.0,9.0,43,0.00,,,0.00,meteohub,2013-08-16 21:22:00,
2013-08-16 17:27:00,64.9,42.4,30.21,SSE,158,8.0,9.0,44,0.00,,,0.00,meteohub,2013-08-16 21:27:00,
2013-08-16 17:32:00,64.8,42.4,30.21,SSE,158,7.0,9.0,44,0.00,,,0.00,meteohub,2013-08-16 21:32:00,
2013-08-16 17:37:00,64.8,43.0,30.21,SSE,158,6.0,9.0,45,0.00,,,0.00,meteohub,2013-08-16 21:37:00,
2013-08-16 17:42:00,64.6,42.3,30.21,SSE,158,5.0,9.0,44,0.00,,,0.00,meteohub,2013-08-16 21:42:00,
2013-08-16 17:47:00,64.2,42.4,30.21,SSE,158,6.0,8.0,45,0.00,,,0.00,meteohub,2013-08-16 21:47:00,
2013-08-16 17:52:00,63.9,42.6,30.22,SSE,158,7.0,10.0,46,0.00,,,0.00,meteohub,2013-08-16 21:52:00,
2013-08-16 17:57:00,63.3,42.8,30.19,SSE,158,6.0,10.0,47,0.00,,,0.00,meteohub,2013-08-16 21:57:00,
2013-08-16 18:02:00,62.8,42.3,30.19,SSE,158,6.0,9.0,47,0.00,,,0.00,meteohub,2013-08-16 22:02:00,
2013-08-16 18:07:00,62.6,42.6,30.19,SSE,158,6.0,7.0,48,0.00,,,0.00,meteohub,2013-08-16 22:07:00,
2013-08-16 18:12:00,62.6,43.7,30.22,SSE,158,5.0,7.0,50,0.00,,,0.00,meteohub,2013-08-16 22:12:00,
2013-08-16 18:17:00,62.6,43.7,30.22,SSE,158,4.0,8.0,50,0.00,,,0.00,meteohub,2013-08-16 22:17:00,
2013-08-16 18:22:00,62.6,44.2,30.22,SSE,158,5.0,8.0,51,0.00,,,0.00,meteohub,2013-08-16 22:22:00,
2013-08-16 18:27:00,62.6,44.2,30.22,SSE,158,6.0,9.0,51,0.00,,,0.00,meteohub,2013-08-16 22:27:00,
2013-08-16 18:32:00,62.2,43.9,30.23,SSW,202,6.0,9.0,51,0.00,,,0.00,meteohub,2013-08-16 22:32:00,
2013-08-16 18:37:00,62.1,44.2,30.23,SSE,158,6.0,9.0,52,0.00,,,0.00,meteohub,2013-08-16 22:37:00,
2013-08-16 18:42:00,61.9,44.1,30.19,SSE,158,8.0,9.0,52,0.00,,,0.00,meteohub,2013-08-16 22:42:00,
2013-08-16 18:47:00,61.9,44.6,30.19,SSE,158,6.0,8.0,53,0.00,,,0.00,meteohub,2013-08-16 22:47:00,
2013-08-16 18:52:00,61.7,44.4,30.20,SSE,158,5.0,9.0,53,0.00,,,0.00,meteohub,2013-08-16 22:52:00,
2013-08-16 18:57:00,61.5,44.2,30.23,SSE,158,5.0,9.0,53,0.00,,,0.00,meteohub,2013-08-16 22:57:00,
2013-08-16 19:03:00,61.3,44.1,30.23,SSE,158,7.0,9.0,53,0.00,,,0.00,meteohub,2013-08-16 23:03:00,
2013-08-16 19:08:00,61.0,43.7,30.24,SSE,158,5.0,8.0,53,0.00,,,0.00,meteohub,2013-08-16 23:08:00,
2013-08-16 19:13:00,60.6,43.9,30.24,South,180,6.0,7.0,54,0.00,,,0.00,meteohub,2013-08-16 23:13:00,
2013-08-16 19:18:00,60.3,43.5,30.24,SSE,158,4.0,7.0,54,0.00,,,0.00,meteohub,2013-08-16 23:18:00,
2013-08-16 19:23:00,60.1,43.9,30.25,SSE,158,6.0,6.0,55,0.00,,,0.00,meteohub,2013-08-16 23:23:00,
2013-08-16 19:28:00,59.9,44.2,30.25,SSE,158,5.0,7.0,56,0.00,,,0.00,meteohub,2013-08-16 23:28:00,
2013-08-16 19:33:00,59.7,44.1,30.25,SSE,158,4.0,7.0,56,0.00,,,0.00,meteohub,2013-08-16 23:33:00,
2013-08-16 19:38:00,59.7,44.4,30.25,SSE,158,4.0,7.0,57,0.00,,,0.00,meteohub,2013-08-16 23:38:00,
2013-08-16 19:43:00,59.7,45.0,30.25,SSE,158,4.0,5.0,58,0.00,,,0.00,meteohub,2013-08-16 23:43:00,
2013-08-16 19:48:00,59.7,45.3,30.25,SSE,158,4.0,7.0,59,0.00,,,0.00,meteohub,2013-08-16 23:48:00,
2013-08-16 19:53:00,59.5,45.7,30.25,SSE,158,4.0,7.0,60,0.00,,,0.00,meteohub,2013-08-16 23:53:00,
2013-08-16 19:58:00,59.4,45.5,30.25,SSE,158,4.0,7.0,60,0.00,,,0.00,meteohub,2013-08-16 23:58:00,
2013-08-16 20:03:00,59.4,45.9,30.25,SSE,158,4.0,6.0,61,0.00,,,0.00,meteohub,2013-08-17 00:03:00,
2013-08-16 20:08:00,59.2,46.2,30.25,SSE,158,5.0,5.0,62,0.00,,,0.00,meteohub,2013-08-17 00:08:00,
2013-08-16 20:13:00,58.8,46.2,30.25,SSE,158,4.0,5.0,63,0.00,,,0.00,meteohub,2013-08-17 00:13:00,
2013-08-16 20:18:00,58.6,46.0,30.25,SSE,158,4.0,5.0,63,0.00,,,0.00,meteohub,2013-08-17 00:18:00,
2013-08-16 20:23:00,58.5,45.9,30.26,South,180,5.0,5.0,63,0.00,,,0.00,meteohub,2013-08-17 00:23:00,
2013-08-16 20:28:00,58.3,46.2,30.26,SSE,158,3.0,5.0,64,0.00,,,0.00,meteohub,2013-08-17 00:28:00,
2013-08-16 20:33:00,58.1,46.4,30.26,North,-999,-999.0,5.0,65,0.00,,,0.00,meteohub,2013-08-17 00:33:00,
2013-08-16 20:38:00,57.9,46.2,30.26,North,-999,-999.0,5.0,65,0.00,,,0.00,meteohub,2013-08-17 00:38:00,
2013-08-16 20:43:00,57.9,46.2,30.30,South,180,2.0,3.0,65,0.00,,,0.00,meteohub,2013-08-17 00:43:00,
2013-08-16 20:48:00,57.7,46.4,30.30,North,-999,-999.0,2.0,66,0.00,,,0.00,meteohub,2013-08-17 00:48:00,
2013-08-16 20:53:00,57.6,46.2,30.30,SSE,158,2.0,2.0,66,0.00,,,0.00,meteohub,2013-08-17 00:53:00,
2013-08-16 20:58:00,57.6,46.2,30.30,SSE,158,3.0,3.0,66,0.00,,,0.00,meteohub,2013-08-17 00:58:00,
2013-08-16 21:03:00,57.4,46.2,30.30,SSE,158,3.0,4.0,66,0.00,,,0.00,meteohub,2013-08-17 01:03:00,
2013-08-16 21:08:00,57.4,46.6,30.30,SSE,158,3.0,4.0,67,0.00,,,0.00,meteohub,2013-08-17 01:08:00,
2013-08-16 21:13:00,57.2,46.4,30.30,SSE,158,4.0,4.0,67,0.00,,,0.00,meteohub,2013-08-17 01:13:00,
2013-08-16 21:19:00,57.2,46.8,30.30,SSE,158,3.0,5.0,68,0.00,,,0.00,meteohub,2013-08-17 01:19:00,
2013-08-16 21:24:00,57.4,46.9,30.30,SSE,158,3.0,5.0,68,0.00,,,0.00,meteohub,2013-08-17 01:24:00,
2013-08-16 21:29:00,57.4,46.9,30.30,SSE,158,3.0,5.0,68,0.00,,,0.00,meteohub,2013-08-17 01:29:00,
2013-08-16 21:34:00,57.4,47.3,30.30,SSE,158,3.0,5.0,69,0.00,,,0.00,meteohub,2013-08-17 01:34:00,
2013-08-16 21:39:00,57.6,47.5,30.30,SSE,158,4.0,5.0,69,0.00,,,0.00,meteohub,2013-08-17 01:39:00,
2013-08-16 21:44:00,57.6,47.8,30.30,SSE,158,3.0,5.0,70,0.00,,,0.00,meteohub,2013-08-17 01:44:00,
2013-08-16 21:49:00,57.6,47.8,30.30,SSE,158,3.0,5.0,70,0.00,,,0.00,meteohub,2013-08-17 01:49:00,
2013-08-16 21:54:00,57.6,47.8,30.30,SE,135,5.0,5.0,70,0.00,,,0.00,meteohub,2013-08-17 01:54:00,
2013-08-16 21:59:00,57.6,47.8,30.33,SSE,158,5.0,5.0,70,0.00,,,0.00,meteohub,2013-08-17 01:59:00,
2013-08-16 22:04:00,57.6,47.8,30.33,SSE,158,4.0,6.0,70,0.00,,,0.00,meteohub,2013-08-17 02:04:00,
2013-08-16 22:09:00,57.6,47.8,30.33,SSE,158,4.0,6.0,70,0.00,,,0.00,meteohub,2013-08-17 02:09:00,
2013-08-16 22:14:00,57.6,47.8,30.33,SSE,158,3.0,6.0,70,0.00,,,0.00,meteohub,2013-08-17 02:14:00,
2013-08-16 22:19:00,57.4,47.7,30.33,SSE,158,4.0,5.0,70,0.00,,,0.00,meteohub,2013-08-17 02:19:00,
2013-08-16 22:24:00,57.4,48.0,30.33,SSE,158,4.0,5.0,71,0.00,,,0.00,meteohub,2013-08-17 02:24:00,
2013-08-16 22:29:00,57.4,48.0,30.33,SSE,158,6.0,6.0,71,0.00,,,0.00,meteohub,2013-08-17 02:29:00,
2013-08-16 22:34:00,57.2,47.8,30.33,SSE,158,6.0,7.0,71,0.00,,,0.00,meteohub,2013-08-17 02:34:00,
2013-08-16 22:39:00,57.2,47.8,30.33,SSE,158,3.0,7.0,71,0.00,,,0.00,meteohub,2013-08-17 02:39:00,
2013-08-16 22:44:00,57.2,48.2,30.33,SSE,158,4.0,7.0,72,0.00,,,0.00,meteohub,2013-08-17 02:44:00,
2013-08-16 22:49:00,57.0,48.0,30.34,SSE,158,5.0,6.0,72,0.00,,,0.00,meteohub,2013-08-17 02:49:00,
2013-08-16 22:54:00,57.0,48.4,30.34,SSE,158,3.0,7.0,73,0.00,,,0.00,meteohub,2013-08-17 02:54:00,
2013-08-16 22:59:00,57.0,48.4,30.34,SSE,158,6.0,8.0,73,0.00,,,0.00,meteohub,2013-08-17 02:59:00,
2013-08-16 23:04:00,56.8,48.7,30.34,SSE,158,6.0,8.0,74,0.00,,,0.00,meteohub,2013-08-17 03:04:00,
2013-08-16 23:09:00,56.8,48.7,30.34,SSE,158,5.0,8.0,74,0.00,,,0.00,meteohub,2013-08-17 03:09:00,
2013-08-16 23:14:00,56.7,48.6,30.34,SSE,158,5.0,8.0,74,0.00,,,0.00,meteohub,2013-08-17 03:14:00,
2013-08-16 23:19:00,56.7,48.6,30.34,SSE,158,4.0,8.0,74,0.00,,,0.00,meteohub,2013-08-17 03:19:00,
2013-08-16 23:24:00,56.7,48.9,30.34,SSE,158,6.0,7.0,75,0.00,,,0.00,meteohub,2013-08-17 03:24:00,
2013-08-16 23:29:00,56.7,48.9,30.34,SE,135,4.0,8.0,75,0.00,,,0.00,meteohub,2013-08-17 03:29:00,
2013-08-16 23:34:00,56.5,48.7,30.34,SSE,158,5.0,8.0,75,0.00,,,0.00,meteohub,2013-08-17 03:34:00,
2013-08-16 23:39:00,56.5,48.7,30.34,SSE,158,5.0,8.0,75,0.00,,,0.00,meteohub,2013-08-17 03:39:00,
2013-08-16 23:44:00,56.5,48.7,30.34,SSE,158,5.0,6.0,75,0.00,,,0.00,meteohub,2013-08-17 03:44:00,
2013-08-16 23:49:00,56.3,48.6,30.34,SSE,158,4.0,6.0,75,0.00,,,0.00,meteohub,2013-08-17 03:49:00,
2013-08-16 23:55:00,56.3,48.6,30.34,SE,135,4.0,7.0,75,0.00,,,0.00,meteohub,2013-08-17 03:55:00,